OCN29K EDDH-LKPR

Flight info

Callsign OCN29K
Flight time 0h 58m
Altitude 35000
Route RAMAR6G RAMAR Z998 OSKAN M748 HDO DCT GOLOP
Aircraft A333/H-SDE3GHIJ2J3J5M1RVWXY/LB2D1

Departure

Time 2026-04-22 17:34
Airport Hamburg Helmut Schmidt Airport (EDDH)

Arrival

Time 2026-04-22 18:32
Airport Václav Havel Airport Prague (LKPR)
Time Latitude Longitude Altitude Speed Heading
2026-04-22 17:04 53.63282 10.00358 50 ft 0 kts 85°
2026-04-22 17:26 53.63281 10.00333 46 ft 2 kts 85°
2026-04-22 17:26 53.63280 10.00306 45 ft 2 kts 85°
2026-04-22 17:26 53.63279 10.00278 44 ft 2 kts 85°
2026-04-22 17:27 53.63277 10.00251 44 ft 2 kts 85°
2026-04-22 17:27 53.63276 10.00224 46 ft 2 kts 89°
2026-04-22 17:27 53.63279 10.00205 45 ft 0 kts 176°
2026-04-22 17:30 53.63268 10.00206 45 ft 1 kts 176°
2026-04-22 17:31 53.63247 10.00208 46 ft 5 kts 176°
2026-04-22 17:31 53.63204 10.00213 49 ft 8 kts 176°
2026-04-22 17:31 53.63141 10.00220 49 ft 11 kts 176°
2026-04-22 17:31 53.63060 10.00205 47 ft 13 kts 202°
2026-04-22 17:32 53.62978 10.00126 47 ft 15 kts 211°
2026-04-22 17:32 53.62889 10.00036 47 ft 15 kts 212°
2026-04-22 17:32 53.62831 9.99915 51 ft 14 kts 243°
2026-04-22 17:32 53.62815 9.99807 47 ft 3 kts 295°
2026-04-22 17:33 53.62833 9.99779 47 ft 8 kts 323°
2026-04-22 17:33 53.62919 9.99701 47 ft 21 kts 333°
2026-04-22 17:33 53.63248 9.99417 49 ft 88 kts 333°
2026-04-22 17:33 53.63981 9.98784 50 ft 149 kts 332°
2026-04-22 17:34 53.64938 9.98034 827 ft 149 kts 332°
2026-04-22 17:34 53.65896 9.97264 1587 ft 161 kts 333°
2026-04-22 17:34 53.66968 9.96325 1897 ft 186 kts 331°
2026-04-22 17:34 53.68162 9.95205 2295 ft 206 kts 331°
2026-04-22 17:35 53.69535 9.94407 3022 ft 212 kts 353°
2026-04-22 17:35 53.71010 9.94495 3957 ft 211 kts
2026-04-22 17:35 53.72452 9.94758 4996 ft 206 kts 12°
2026-04-22 17:35 53.73727 9.95857 5884 ft 212 kts 41°
2026-04-22 17:36 53.74612 9.98012 6424 ft 234 kts 59°
2026-04-22 17:36 53.75310 10.00580 6888 ft 252 kts 63°
2026-04-22 17:36 53.76020 10.03359 7423 ft 263 kts 63°
2026-04-22 17:36 53.76798 10.06204 8099 ft 268 kts 62°
2026-04-22 17:37 53.77619 10.09063 8705 ft 271 kts 61°
2026-04-22 17:37 53.78444 10.11946 9136 ft 274 kts 61°
2026-04-22 17:37 53.79288 10.14864 9890 ft 276 kts 60°
2026-04-22 17:37 53.80147 10.17782 10533 ft 283 kts 61°
2026-04-22 17:38 53.81032 10.20847 10824 ft 301 kts 61°
2026-04-22 17:38 53.81979 10.24113 11166 ft 315 kts 62°
2026-04-22 17:38 53.82951 10.27482 11710 ft 322 kts 62°
2026-04-22 17:38 53.83932 10.30915 12326 ft 325 kts 63°
2026-04-22 17:39 53.84727 10.34535 12888 ft 333 kts 74°
2026-04-22 17:39 53.85109 10.38415 13606 ft 334 kts 82°
2026-04-22 17:39 53.84459 10.46180 15050 ft 339 kts 106°
2026-04-22 17:40 53.83502 10.49879 15507 ft 348 kts 118°
2026-04-22 17:40 53.82026 10.53190 16056 ft 354 kts 128°
2026-04-22 17:40 53.80323 10.56169 16609 ft 359 kts 134°
2026-04-22 17:40 53.78448 10.58997 17195 ft 362 kts 137°
2026-04-22 17:41 53.76493 10.61744 17728 ft 366 kts 138°
2026-04-22 17:41 53.74509 10.64468 18276 ft 369 kts 139°
2026-04-22 17:41 53.72515 10.67211 18800 ft 371 kts 138°
2026-04-22 17:41 53.70516 10.69997 19293 ft 373 kts 138°
2026-04-22 17:42 53.68522 10.72809 19787 ft 374 kts 138°
2026-04-22 17:42 53.66531 10.75642 20271 ft 376 kts 137°
2026-04-22 17:42 53.64537 10.78494 20758 ft 377 kts 137°
2026-04-22 17:42 53.62530 10.81369 21233 ft 379 kts 137°
2026-04-22 17:43 53.60540 10.84220 21698 ft 380 kts 137°
2026-04-22 17:43 53.58518 10.87112 22079 ft 382 kts 138°
2026-04-22 17:43 53.56490 10.90006 22358 ft 383 kts 138°
2026-04-22 17:43 53.54452 10.92909 22632 ft 384 kts 137°
2026-04-22 17:44 53.52402 10.95824 23066 ft 387 kts 138°
2026-04-22 17:44 53.50344 10.98747 23556 ft 388 kts 138°
2026-04-22 17:44 53.48275 11.01680 24007 ft 389 kts 138°
2026-04-22 17:44 53.46209 11.04605 24421 ft 389 kts 137°
2026-04-22 17:45 53.44134 11.07539 24805 ft 389 kts 137°
2026-04-22 17:45 53.42054 11.10475 25212 ft 390 kts 137°
2026-04-22 17:45 53.40001 11.13371 25593 ft 391 kts 137°
2026-04-22 17:45 53.37913 11.16312 25985 ft 392 kts 137°
2026-04-22 17:46 53.35824 11.19252 26356 ft 392 kts 137°
2026-04-22 17:46 53.33729 11.22195 26732 ft 393 kts 137°
2026-04-22 17:46 53.31624 11.25148 27108 ft 394 kts 137°
2026-04-22 17:46 53.29519 11.28098 27456 ft 395 kts 136°
2026-04-22 17:47 53.27402 11.31061 27833 ft 396 kts 136°
2026-04-22 17:47 53.25289 11.34014 28202 ft 397 kts 136°
2026-04-22 17:47 53.23193 11.36940 28563 ft 398 kts 136°
2026-04-22 17:47 53.21067 11.39903 28938 ft 399 kts 136°
2026-04-22 17:48 53.19624 11.41912 29169 ft 400 kts 136°
2026-04-22 17:48 53.16778 11.45872 29532 ft 405 kts 136°
2026-04-22 17:48 53.14605 11.48889 29859 ft 406 kts 136°
2026-04-22 17:48 53.12429 11.51905 30239 ft 407 kts 136°
2026-04-22 17:49 53.10237 11.54939 30576 ft 408 kts 136°
2026-04-22 17:49 53.08075 11.57926 30883 ft 409 kts 136°
2026-04-22 17:49 53.05882 11.60952 31212 ft 409 kts 136°
2026-04-22 17:49 53.03684 11.63982 31539 ft 410 kts 135°
2026-04-22 17:50 53.01484 11.67011 31913 ft 411 kts 135°
2026-04-22 17:50 52.99279 11.70042 32293 ft 412 kts 135°
2026-04-22 17:50 52.97079 11.73061 32829 ft 409 kts 134°
2026-04-22 17:50 52.94894 11.76052 33438 ft 405 kts 134°
2026-04-22 17:51 52.92722 11.79022 33991 ft 402 kts 134°
2026-04-22 17:51 52.90567 11.81966 34515 ft 400 kts 134°
2026-04-22 17:51 52.88427 11.84888 34848 ft 400 kts 134°
2026-04-22 17:51 52.86297 11.87799 35086 ft 403 kts 134°
2026-04-22 17:52 52.84124 11.90764 35266 ft 403 kts 134°
2026-04-22 17:52 52.79840 11.96579 35286 ft 395 kts 134°
2026-04-22 17:53 52.75590 12.02342 35288 ft 395 kts 134°
2026-04-22 17:53 52.71340 12.08092 35290 ft 395 kts 134°
2026-04-22 17:54 52.67112 12.13797 35289 ft 395 kts 134°
2026-04-22 17:54 52.62862 12.19514 35286 ft 394 kts 134°
2026-04-22 17:55 52.59292 12.24307 35292 ft 396 kts 134°
2026-04-22 17:55 52.54309 12.30980 35288 ft 398 kts 134°
2026-04-22 17:56 52.50012 12.36714 35286 ft 398 kts 134°
2026-04-22 17:56 52.45738 12.42403 35278 ft 397 kts 134°
2026-04-22 17:57 52.41439 12.48111 35278 ft 397 kts 134°
2026-04-22 17:57 52.37138 12.53807 35292 ft 397 kts 134°
2026-04-22 17:58 52.32839 12.59486 35274 ft 397 kts 134°
2026-04-22 17:58 52.28528 12.65170 35268 ft 400 kts 135°
2026-04-22 17:59 52.24194 12.70868 35273 ft 400 kts 135°
2026-04-22 17:59 52.19882 12.76518 35263 ft 400 kts 135°
2026-04-22 18:00 52.16239 12.81280 35267 ft 400 kts 135°
2026-04-22 18:00 52.11924 12.86907 35270 ft 400 kts 135°
2026-04-22 18:01 52.07562 12.92585 35259 ft 400 kts 134°
2026-04-22 18:01 52.03204 12.98245 35264 ft 402 kts 135°
2026-04-22 18:02 51.98811 13.03938 35258 ft 405 kts 135°
2026-04-22 18:02 51.94424 13.09600 35257 ft 405 kts 135°
2026-04-22 18:03 51.90006 13.15287 35263 ft 405 kts 135°
2026-04-22 18:03 51.85583 13.20968 35266 ft 405 kts 135°
2026-04-22 18:04 51.81159 13.26635 35264 ft 405 kts 135°
2026-04-22 18:04 51.76742 13.32279 35265 ft 404 kts 135°
2026-04-22 18:05 51.72331 13.37907 35256 ft 409 kts 135°
2026-04-22 18:05 51.67852 13.43605 35263 ft 410 kts 135°
2026-04-22 18:06 51.63359 13.49302 35168 ft 415 kts 135°
2026-04-22 18:06 51.61088 13.52181 34609 ft 417 kts 135°
2026-04-22 18:06 51.58800 13.55075 33908 ft 418 kts 135°
2026-04-22 18:06 51.56537 13.57931 33238 ft 417 kts 136°
2026-04-22 18:07 51.54255 13.60803 32596 ft 416 kts 135°
2026-04-22 18:07 51.51972 13.63674 31949 ft 416 kts 136°
2026-04-22 18:07 51.49690 13.66545 31287 ft 416 kts 136°
2026-04-22 18:07 51.47420 13.69395 30780 ft 412 kts 137°
2026-04-22 18:08 51.45173 13.72208 30334 ft 407 kts 137°
2026-04-22 18:08 51.42954 13.74983 29824 ft 402 kts 137°
2026-04-22 18:08 51.40756 13.77729 29332 ft 397 kts 137°
2026-04-22 18:08 51.38593 13.80428 28861 ft 391 kts 137°
2026-04-22 18:09 51.36454 13.83096 28407 ft 387 kts 137°
2026-04-22 18:09 51.34345 13.85724 27965 ft 382 kts 137°
2026-04-22 18:09 51.32291 13.88283 27541 ft 378 kts 137°
2026-04-22 18:09 51.30224 13.90855 27099 ft 374 kts 137°
2026-04-22 18:10 51.28175 13.93402 26627 ft 371 kts 137°
2026-04-22 18:10 51.26141 13.95926 26186 ft 369 kts 137°
2026-04-22 18:10 51.24105 13.98453 25750 ft 368 kts 137°
2026-04-22 18:10 51.22082 14.00960 25312 ft 367 kts 137°
2026-04-22 18:11 51.20091 14.03423 24871 ft 365 kts 137°
2026-04-22 18:11 51.18089 14.05895 24423 ft 364 kts 137°
2026-04-22 18:11 51.16087 14.08365 23983 ft 363 kts 137°
2026-04-22 18:11 51.14090 14.10825 23502 ft 362 kts 137°
2026-04-22 18:12 51.12099 14.13276 23046 ft 360 kts 137°
2026-04-22 18:12 51.10122 14.15707 22629 ft 359 kts 137°
2026-04-22 18:12 51.08173 14.18100 22191 ft 357 kts 137°
2026-04-22 18:12 51.06204 14.20516 21775 ft 356 kts 137°
2026-04-22 18:13 51.04244 14.22919 21336 ft 355 kts 137°
2026-04-22 18:13 51.02290 14.25311 20911 ft 353 kts 137°
2026-04-22 18:13 51.00342 14.27694 20489 ft 352 kts 137°
2026-04-22 18:13 50.98426 14.30033 20089 ft 353 kts 137°
2026-04-22 18:14 50.96442 14.32463 19825 ft 366 kts 137°
2026-04-22 18:14 50.94386 14.34916 19583 ft 373 kts 142°
2026-04-22 18:14 50.92053 14.36819 19156 ft 381 kts 155°
2026-04-22 18:14 50.89510 14.38046 18681 ft 382 kts 161°
2026-04-22 18:15 50.86926 14.39067 18204 ft 381 kts 162°
2026-04-22 18:15 50.84371 14.40027 17910 ft 381 kts 163°
2026-04-22 18:15 50.81793 14.40985 17456 ft 380 kts 163°
2026-04-22 18:15 50.79204 14.41889 17136 ft 379 kts 164°
2026-04-22 18:16 50.76628 14.42754 16868 ft 377 kts 165°
2026-04-22 18:16 50.74061 14.43616 16599 ft 375 kts 165°
2026-04-22 18:16 50.71543 14.44464 16350 ft 374 kts 165°
2026-04-22 18:16 50.68996 14.45323 16092 ft 373 kts 165°
2026-04-22 18:17 50.66460 14.46180 15847 ft 372 kts 165°
2026-04-22 18:17 50.63931 14.47035 15592 ft 370 kts 165°
2026-04-22 18:17 50.61441 14.47874 15279 ft 362 kts 165°
2026-04-22 18:17 50.58985 14.48703 14832 ft 359 kts 165°
2026-04-22 18:18 50.56547 14.49525 14386 ft 357 kts 165°
2026-04-22 18:18 50.54121 14.50344 13914 ft 356 kts 165°
2026-04-22 18:18 50.51708 14.51156 13441 ft 353 kts 165°
2026-04-22 18:18 50.49314 14.51961 13022 ft 349 kts 165°
2026-04-22 18:19 50.46980 14.52745 12586 ft 346 kts 165°
2026-04-22 18:19 50.44628 14.53534 12146 ft 344 kts 166°
2026-04-22 18:19 50.42296 14.54316 11715 ft 341 kts 166°
2026-04-22 18:19 50.39975 14.55093 11254 ft 339 kts 166°
2026-04-22 18:20 50.37665 14.55866 10814 ft 337 kts 166°
2026-04-22 18:20 50.35383 14.56628 10520 ft 330 kts 166°
2026-04-22 18:20 50.33189 14.57359 10426 ft 315 kts 166°
2026-04-22 18:20 50.31085 14.58058 10324 ft 303 kts 166°
2026-04-22 18:21 50.29048 14.58737 10134 ft 297 kts 166°
2026-04-22 18:21 50.27019 14.59415 9735 ft 298 kts 166°
2026-04-22 18:21 50.25007 14.60087 9216 ft 302 kts 166°
2026-04-22 18:21 50.22950 14.60772 8775 ft 301 kts 166°
2026-04-22 18:22 50.20909 14.61449 8460 ft 296 kts 166°
2026-04-22 18:22 50.18909 14.62111 8184 ft 291 kts 166°
2026-04-22 18:22 50.16947 14.62763 7863 ft 287 kts 166°
2026-04-22 18:22 50.14997 14.63414 7519 ft 285 kts 166°
2026-04-22 18:23 50.13067 14.64053 7183 ft 282 kts 166°
2026-04-22 18:23 50.11183 14.64695 6881 ft 279 kts 166°
2026-04-22 18:23 50.09298 14.65358 6618 ft 274 kts 165°
2026-04-22 18:24 50.05544 14.66726 5635 ft 281 kts 165°
2026-04-22 18:24 50.03638 14.67435 5242 ft 280 kts 165°
2026-04-22 18:24 49.99876 14.68858 4725 ft 278 kts 166°
2026-04-22 18:25 49.97960 14.69113 4554 ft 277 kts 190°
2026-04-22 18:25 49.96181 14.68049 4304 ft 275 kts 217°
2026-04-22 18:25 49.94901 14.65913 4073 ft 269 kts 244°
2026-04-22 18:26 49.94363 14.60450 3991 ft 256 kts 276°
2026-04-22 18:26 49.94752 14.57822 4000 ft 246 kts 298°
2026-04-22 18:26 49.95626 14.55666 4018 ft 227 kts 310°
2026-04-22 18:26 49.96562 14.53799 4020 ft 211 kts 311°
2026-04-22 18:27 49.97426 14.52080 4035 ft 193 kts 311°
2026-04-22 18:27 49.98209 14.50481 4030 ft 179 kts 311°
2026-04-22 18:27 49.98930 14.49002 4006 ft 168 kts 311°
2026-04-22 18:27 49.99634 14.47565 3990 ft 166 kts 311°
2026-04-22 18:28 50.00321 14.46145 3987 ft 163 kts 311°
2026-04-22 18:28 50.00995 14.44744 3956 ft 161 kts 311°
2026-04-22 18:28 50.01666 14.43356 3808 ft 162 kts 311°
2026-04-22 18:28 50.02350 14.41975 3598 ft 164 kts 311°
2026-04-22 18:29 50.03040 14.40542 3353 ft 166 kts 310°
2026-04-22 18:29 50.03729 14.39086 3101 ft 168 kts 311°
2026-04-22 18:29 50.04444 14.37646 2840 ft 168 kts 311°
2026-04-22 18:29 50.05148 14.36227 2626 ft 161 kts 310°
2026-04-22 18:30 50.05782 14.34871 2408 ft 149 kts 309°
2026-04-22 18:30 50.06974 14.32432 1959 ft 134 kts 310°
2026-04-22 18:30 50.07531 14.31295 1758 ft 133 kts 309°
2026-04-22 18:31 50.08095 14.30117 1579 ft 140 kts 309°
2026-04-22 18:31 50.08671 14.28927 1403 ft 136 kts 309°
2026-04-22 18:31 50.09223 14.27801 1254 ft 124 kts 308°
2026-04-22 18:31 50.09641 14.26942 1215 ft 71 kts 308°
2026-04-22 18:32 50.09898 14.26413 1201 ft 57 kts 307°
2026-04-22 18:32 50.10126 14.25940 1190 ft 51 kts 307°
2026-04-22 18:32 50.10300 14.25687 1189 ft 21 kts 339°
2026-04-22 18:32 50.10433 14.25663 1188 ft 6 kts
2026-04-22 18:33 50.10434 14.25663 1188 ft 0 kts
2026-04-22 18:33 50.10442 14.25664 1188 ft 3 kts
2026-04-22 18:34 50.10465 14.25683 1188 ft 5 kts 39°
2026-04-22 18:34 50.10486 14.25753 1188 ft 10 kts 74°
2026-04-22 18:34 50.10503 14.25867 1189 ft 11 kts 77°
2026-04-22 18:34 50.10519 14.25987 1192 ft 11 kts 81°
2026-04-22 18:35 50.10548 14.26104 1191 ft 12 kts 50°
2026-04-22 18:35 50.10611 14.26196 1188 ft 11 kts 41°
2026-04-22 18:35 50.10626 14.26213 1187 ft 0 kts 35°